Location: Sedan
(39.2354°N, 78.5718°W)
Time: 13:28:49
(UTC+00:00)

Envisat - Pass Details

Date: 03 December 2021
Orbit: 764 x 766 km, 98.2° (Epoch: 19 January)

Event Time Altitude Azimuth Distance (km) Brightness Sun altitude
Rises 11:10:43 0° 0° (N) 3,240 6.1 -12.6°
Reaches altitude 10° 11:13:18 10° 349° (N) 2,310 5.2 -12.1°
Maximum altitude 11:17:33 27° 293° (WNW) 1,428 3.8 -11.4°
Drops below altitude 10° 11:21:46 10° 236° (SW) 2,296 5.1 -10.6°
Sets 11:24:21 0° 224° (SW) 3,218 6.0 -10.1°
